Location: Wiesbaden
(50.0830°N, 8.2500°E)
Time: 05:53:13
(UTC+01:00)

ISS - Pass Details

Date: 05 December 2019
Orbit: 411 x 421 km, 51.6° (Epoch: 15 December)

Event Time Altitude Azimuth Distance (km) Brightness Sun altitude
Rises 19:11:56 0° 287° (WNW) 2,363 1.1 -25.6°
Reaches altitude 10° 19:14:05 10° 281° (W) 1,499 0.0 -25.9°
Enters shadow 19:15:59 28° 260° (W) 826 -1.7 -26.2°
